Powrót do katalogu

METEOR 2-17 DEB

AktywnyPO
NORAD 38284·DEBRIS·🇷🇺 Russia

Wystrzelony Jan 30, 1988 z Plesetsk Cosmodrome

Loading…

Następne Przeloty (najbliższe 24 godziny)

TLE

ŚwieżeSource: Space-Track

Epoka: Sep 14, 2026, 01:44 UTC

1 38284U 88005AM  26257.07273392  .00001954  00000-0  11973-2 0  9993
2 38284  82.5339 187.4565 0019749 259.1633 100.7316 14.05258620606229

Śledź METEOR 2-17 DEB w czasie rzeczywistym z AllMySat

Download on the App Store